Regional Weather Roundup
Issued by NWS New Orleans/Baton Rouge, LA

Home | Current Version | Previous Version | Text Only | Print | Product List | Glossary On
Versions: 1 2 3 4 5 6 7 8 9 10 11 12 13 14 15 16 17 18 19 20 21 22 23 24 25 26 27 28 29 30 31 32 33 34 35 36 37 38 39 40 41 42 43 44 45 46 47 48 49 50
000
ASUS44 KLIX 231013
RWRLIX
NEW ORLEANS REGIONAL WEATHER ROUNDUP
NATIONAL WEATHER SERVICE NEW ORLEANS LA
500 AM CDT SUN APR 23 2017

NOTE: "FAIR" INDICATES FEW OR NO CLOUDS BELOW 12,000 FEET WITH NO
      SIGNIFICANT WEATHER AND/OR OBSTRUCTIONS TO VISIBILITY.
      SKY/WX - SKY CONDITION AND SIGNIFICANT WEATHER.
      TMP - AIR TEMPERATURE.     DP    - DEWPOINT TEMPERATURE.
      RH  - RELATIVE HUMIDITY.   PRES  - PRESSURE.
      HI  - HEAT INDEX.          WCI   - WIND CHILL INDEX.

*  THESE STATIONS ARE NOT NWS OR FAA STATIONS AND ARE NOT UNDER
   NWS QUALITY CONTROL.

LAZ038-040-048-061>063-065>067-069-231100-
SOUTHEAST LOUISIANA

CITY           SKY/WX    TMP DP  RH WIND       PRES   REMARKS
N.O. INTL ARPT PTCLDY    65  60  84 N9        29.88S
N.O. LAKEFRONT MOCLDY    67  62  84 N15       29.88S
N.O. DOWNTOWN*   N/A     67  60  78 VRB7        N/A
RESERVE*       NOT AVBL
SLIDELL        MOCLDY    62  60  93 NW6       29.87R
BATON ROUGE    CLOUDY    61  56  83 NW10      29.91S
BOOTHVILLE     CLOUDY    70  67  90 N9        29.85F
BELLE CHASSE   PTCLDY   N/A N/A N/A MISG      29.86S
BOGALUSA*      NOT AVBL
GALLIANO*      MOSUNNY   64  59  85 NW6       29.88R
NEW ROADS*     CLOUDY    58  54  85 NW9       29.94R
GONZALES*      CLOUDY    61  60  95 NW5       29.90R
HAMMOND*       CLOUDY    61  59  94 NW3       29.89S
HOUMA*         CLOUDY    64  62  94 NW7       29.89S
PORT FOURCHON* CLOUDY    68  64  88 N13       29.87S

$$

MSZ070-080>082-231100-
SOUTHERN MISSISSIPPI

CITY           SKY/WX    TMP DP  RH WIND       PRES   REMARKS
MCCOMB         CLOUDY    58  55  90 N6        29.90R FOG
GULFPORT       MOCLDY    64  62  93 NW7       29.84F
BILOXI         CLOUDY    65  63  95 N6        29.83S
PASCAGOULA     CLOUDY    66  64  93 CALM      29.83S

$$

COASTAL OBSERVATIONS
LAKE AND NEARSHORE STATIONS

STATION/POSITION TIME  TEMP    WIND        PRES    WAVE
                       AIR SEA DIR/SP/G            HT/PER
                 (UTC) (F)     (DEG/KT/KT) (MB)    (FT/S)
PASCAGOULA       0948   67     350/  7/  9 1009.5
WAVELAND YACHT   0948   64 78  330/  9/ 14 1010.5
GRAND ISLE       0948   69 78  350/ 12/ 18 1010.8
SOUTHWEST PASS   0948          360/ 14/ 16   N/A
NEW CANAL        0948   67 76  360/ 14/ 18 1011.4
SHELL BEACH      0948   67 79  340/ 13/ 17 1011.0

OFFSHORE STATIONS

STATION/POSITION TIME  TEMP    WIND        PRES    WAVE
                       AIR SEA DIR/SP/G            HT/PER
                 (UTC) (F)     (DEG/KT/KT) (MB)    (FT/S)
64 S DAUPHIN ISL 0950   75 77  230/ 14/ 16 1010.5    2/ 7

$$




USA.gov is the U.S. government's official web portal to all federal, state and local government web resources and services.